Theta_e
316 315 315 314 314 314 313 312 311 311 311 311 311 310 307 306 303 301 301 304 300 299 305 304 302 303 305 306 307 307 306 305 303 303 302 302 302 302 303 305 307 308 310 311 312 313 314 314 315 314 314 313 313 312 313 313 314 315 315 314 315 313 311 311 311 311 310 309 309 308 307 306 306 305
318 317 316 315 315 314 314 313 313 311 311 311 311 311 310 309 306 305 303 305 307 303 301 306 302 298 303 304 305 305 305 303 302 303 302 301 302 301 302 304 306 307 309 311 312 312 312 313 313 314 314 313 313 312 312 313 314 314 314 315 313 311 309 309 310 310 309 308 307 307 307 306 305 305
319 318 317 317 316 316 316 315 314 313 312 312 312 312 312 311 310 308 308 304 309 310 309 303 305 303 301 303 304 304 304 303 302 303 303 302 299 298 300 301 304 306 307 308 308 311 312 313 312 313 313 313 313 313 313 313 312 312 313 312 311 310 309 309 309 308 308 307 306 306 305 305 305 305
320 319 318 318 318 318 317 317 316 316 315 313 313 313 313 313 312 311 309 307 307 308 309 306 305 306 304 302 302 304 304 303 299 303 303 303 298 299 299 299 300 302 304 304 305 307 308 310 311 312 312 313 313 313 312 312 312 311 311 310 310 309 309 308 307 307 306 306 305 305 304 304 304 304
320 319 318 318 319 319 318 318 317 317 317 316 314 313 313 313 313 312 310 308 308 309 302 303 306 304 305 302 302 303 303 302 301 299 301 301 300 299 299 299 297 299 301 303 305 305 305 306 308 310 310 312 312 312 312 311 310 309 309 309 309 308 307 307 306 306 305 305 304 304 303 303 303 302
319 319 318 318 318 318 318 318 317 317 317 317 316 315 313 313 312 313 311 309 309 308 302 304 299 300 303 305 302 302 301 301 300 298 298 299 299 299 298 298 298 297 299 301 303 304 304 305 305 305 305 308 309 310 311 309 309 308 308 307 307 307 307 307 306 305 304 304 304 303 303 303 302 301
317 317 316 317 317 318 316 316 316 316 316 316 315 315 314 312 312 312 312 311 309 309 310 308 306 302 300 304 304 302 302 302 300 298 297 297 296 296 297 297 297 296 298 300 302 303 303 304 304 304 304 305 306 307 308 308 307 308 308 308 306 306 305 305 305 304 303 303 303 302 301 300 300 300
315 316 316 316 316 316 315 315 315 315 315 315 314 313 313 313 312 312 311 311 310 310 309 300 306 302 302 299 297 298 296 296 294 296 295 294 295 295 295 295 295 295 297 299 299 301 302 303 303 304 304 304 304 305 305 306 305 305 305 306 305 304 303 304 303 303 302 302 302 302 301 299 299 299
315 315 315 316 316 315 314 315 314 314 313 313 313 312 312 312 312 312 312 311 310 309 308 307 304 303 302 301 295 297 298 294 292 289 291 292 292 293 294 293 294 294 296 297 297 298 300 301 302 303 303 303 303 303 303 303 303 303 303 303 302 302 301 301 300 300 300 299 298 298 298 297 297 297
315 315 316 316 315 315 314 314 314 314 313 313 312 312 312 312 311 311 311 311 311 310 311 311 310 294 298 294 291 291 294 295 293 290 289 288 289 289 290 291 292 292 292 292 294 295 297 298 300 301 301 301 301 301 301 300 300 300 300 301 300 300 300 299 298 298 297 297 296 296 296 296 296 296
316 316 316 316 316 315 315 315 314 314 313 312 312 312 312 312 311 311 311 311 311 311 311 310 309 307 297 296 298 290 290 290 291 294 291 289 290 288 289 290 289 289 290 291 293 293 294 295 296 298 299 300 300 299 299 299 299 298 298 299 299 298 298 297 297 296 296 296 295 295 295 294 295 295
315 316 316 316 316 316 316 315 315 314 313 312 311 311 311 311 310 310 310 309 309 308 307 307 305 299 297 290 287 286 288 289 289 289 292 294 294 289 287 289 289 287 287 287 287 291 292 293 294 295 296 297 298 298 297 297 295 295 297 297 297 297 297 296 296 295 295 294 294 294 294 293 293 294
316 316 316 316 317 313 305 304 305 308 308 314 312 311 311 310 310 310 310 310 308 307 306 305 303 299 295 293 291 288 288 290 294 294 291 292 294 291 287 287 287 287 286 287 287 286 288 288 288 289 290 291 294 295 295 294 294 296 297 297 296 296 296 296 295 294 294 294 293 293 293 292 292 292
315 315 316 315 303 301 300 299 300 301 301 301 309 314 313 311 310 308 305 304 303 302 302 302 302 301 300 296 293 293 292 293 291 289 289 290 291 287 288 287 287 287 287 286 285 286 287 287 287 287 288 288 289 289 290 289 290 293 296 296 295 295 295 294 294 293 293 293 292 292 292 291 291 290
313 314 314 315 308 301 299 300 298 299 299 300 299 299 301 303 310 307 302 303 303 302 303 303 302 301 301 300 295 294 295 292 292 293 291 292 290 290 290 291 287 286 287 286 286 286 286 286 286 286 286 286 285 286 286 289 291 291 292 293 293 293 293 293 292 292 292 292 291 291 290 290 289 288
313 313 313 313 313 312 310 311 309 302 298 298 299 299 299 299 301 304 308 305 301 301 301 301 301 302 301 301 295 294 293 293 291 291 290 290 291 290 290 291 293 288 288 287 286 286 284 285 285 285 285 284 284 284 286 289 290 290 291 291 291 291 291 291 291 291 290 290 289 289 288 288 288 288
311 310 310 310 312 313 300 299 308 309 307 298 297 297 297 297 297 299 300 302 307 308 303 302 302 302 301 300 298 296 296 296 293 291 290 290 290 291 291 292 292 284 287 287 286 285 283 284 284 284 283 283 282 283 286 288 289 290 290 290 290 290 290 290 290 290 289 288 288 288 288 288 288 288
311 312 310 309 309 309 306 305 306 308 308 309 306 303 302 303 299 296 296 297 296 299 305 305 303 304 301 302 301 298 296 294 293 292 291 291 290 290 291 291 287 284 287 287 286 283 280 282 283 282 280 280 280 280 284 289 290 290 290 290 290 290 289 289 289 288 288 288 287 287 287 287 287 286
307 309 310 309 308 307 303 305 304 304 306 306 307 305 304 304 303 303 302 301 301 301 303 305 306 306 303 303 301 299 297 297 298 297 295 293 291 289 286 284 284 284 286 287 288 287 280 280 281 279 278 278 279 280 287 289 289 289 289 289 289 289 288 288 288 288 287 287 286 286 285 284 284 284
304 306 307 307 307 308 307 301 299 300 304 304 302 299 301 301 302 303 300 300 301 302 305 305 305 305 303 301 300 298 297 296 295 291 288 289 288 288 288 287 283 284 285 286 287 281 278 280 280 276 276 279 278 278 279 288 288 288 288 288 288 288 288 287 287 287 286 285 285 284 284 283 283 282
300 301 302 302 303 303 302 298 299 299 297 301 301 300 298 299 298 299 299 296 297 297 298 299 300 301 301 300 300 299 298 295 293 291 290 288 288 288 287 287 284 285 284 284 285 283 279 278 278 276 275 276 275 275 273 276 287 288 288 288 287 287 286 286 285 285 284 284 283 283 283 282 281 280
298 298 292 292 298 298 299 297 298 299 297 298 298 297 295 294 295 296 295 295 296 294 295 295 295 296 297 297 298 298 297 296 293 292 292 291 289 289 290 289 285 283 282 283 283 284 280 278 278 275 274 275 270 268 272 275 281 286 286 286 285 285 285 284 284 283 283 283 282 282 282 281 279 276
294 295 293 291 292 294 295 296 297 297 296 298 298 298 297 296 296 298 294 294 293 292 292 293 293 292 293 294 295 294 295 294 292 294 295 291 290 291 290 288 283 282 281 283 284 283 278 278 278 277 274 270 270 266 267 271 272 274 275 279 281 283 283 283 283 282 282 282 281 281 281 280 278 275
292 293 294 293 294 296 296 296 296 296 296 296 297 297 297 296 296 297 293 293 294 293 293 294 292 292 291 290 290 290 291 291 290 292 293 291 292 292 291 289 287 288 287 285 284 284 280 280 277 277 275 272 271 271 271 271 271 271 272 275 275 280 281 280 280 281 281 281 280 280 279 279 277 274
291 292 293 293 293 294 295 295 295 295 296 295 295 296 296 296 296 294 293 292 290 292 292 291 291 290 289 289 289 290 289 290 290 290 291 290 292 293 292 290 288 290 282 284 286 283 279 279 278 274 271 272 272 271 270 270 270 270 271 272 272 272 271 272 273 272 278 279 279 279 279 279 278 276
291 291 292 292 292 293 293 294 295 295 296 295 294 295 295 296 296 295 294 293 292 291 291 291 290 289 288 288 288 289 289 289 289 289 290 288 289 291 292 292 290 289 284 284 287 284 281 279 278 275 273 273 271 272 270 271 271 270 270 270 271 271 271 270 270 270 268 269 270 275 276 278 278 278
290 291 291 291 290 291 292 293 294 294 295 294 294 295 295 295 294 293 294 292 292 291 290 289 289 288 288 288 288 288 288 288 288 288 288 287 287 285 283 284 285 288 285 283 286 284 283 281 279 277 275 274 272 271 271 270 270 270 270 270 270 270 270 270 270 270 270 269 269 275 275 276 277 277
290 290 290 290 291 290 291 291 292 293 292 292 294 294 294 293 292 292 292 291 290 290 289 289 288 288 288 287 288 288 288 287 286 285 284 284 284 283 282 282 282 283 283 284 284 283 284 281 279 279 277 275 272 271 270 271 271 270 270 270 270 270 270 271 270 270 270 268 268 268 267 267 269 270
290 290 290 290 289 289 290 290 290 290 290 291 292 292 292 290 292 291 291 290 289 289 289 289 289 289 288 288 288 286 284 282 281 281 280 280 279 279 279 278 278 279 282 283 282 282 282 281 279 277 277 277 275 274 273 270 270 270 270 269 268 270 270 270 270 270 269 269 267 267 267 267 267 268
288 288 288 288 288 288 288 288 288 288 289 289 289 289 289 290 290 290 290 289 289 289 290 289 289 289 288 287 285 283 282 282 281 280 279 279 279 280 280 279 278 277 277 278 279 280 280 280 278 278 277 276 276 274 273 271 270 270 271 270 270 270 269 270 271 271 269 268 268 267 267 266 267 268
288 288 288 288 288 288 288 287 287 287 288 288 289 289 289 289 290 290 290 290 290 290 290 289 289 288 286 285 283 282 282 282 281 282 281 281 280 280 281 279 277 277 277 277 277 279 279 278 278 278 276 274 274 274 274 273 270 270 270 270 270 267 269 270 270 268 268 268 266 267 266 266 266 269
288 288 288 288 287 287 287 288 288 288 288 288 288 289 289 289 289 288 288 288 289 289 289 288 286 285 284 284 284 283 282 283 281 281 281 281 280 280 280 279 277 276 275 275 275 275 276 277 277 277 277 275 273 272 273 272 271 270 269 269 268 269 270 269 268 267 267 267 266 266 265 264 264 266
288 288 288 288 287 287 287 287 287 287 287 288 288 287 287 288 288 288 288 288 288 288 288 287 286 285 284 284 283 283 282 282 281 281 281 281 280 280 281 279 276 274 274 274 273 272 272 272 274 274 274 274 274 273 271 269 269 270 269 268 268 267 267 268 268 268 267 267 265 263 264 263 264 266
287 287 287 287 287 287 287 287 287 287 287 287 287 287 286 287 287 287 287 287 288 287 287 287 286 285 284 283 283 282 282 282 280 280 280 279 279 278 279 276 275 275 273 271 271 271 271 271 271 271 271 271 271 270 271 270 269 269 269 268 268 267 268 268 268 266 267 264 264 262 262 263 262 264
286 286 286 287 287 287 287 287 287 287 287 287 287 287 287 286 286 286 286 287 287 287 287 286 286 285 284 284 283 282 282 281 279 279 279 279 278 278 276 274 273 273 271 270 270 271 271 271 271 270 270 271 270 271 274 272 269 268 268 268 268 267 267 268 267 266 266 266 265 263 261 261 261 263
285 286 286 286 287 287 287 287 287 287 287 287 287 287 286 286 286 286 286 287 287 287 287 286 286 285 284 284 283 283 282 281 279 279 278 278 277 276 275 274 273 272 272 271 270 271 271 271 271 270 268 268 268 267 268 273 272 270 268 266 267 267 267 267 267 266 266 265 265 262 260 260 262 262
285 286 286 286 287 287 287 287 287 287 287 287 287 287 287 286 287 286 287 287 287 287 287 286 286 285 285 284 283 282 282 281 279 278 277 277 277 276 274 273 272 272 271 271 271 272 272 271 272 270 269 268 268 266 267 270 271 273 270 267 267 268 267 265 265 265 266 265 263 262 260 259 260 262
285 285 286 286 286 287 287 287 287 287 287 287 287 287 287 287 287 287 286 286 286 286 286 286 286 285 285 284 283 282 281 280 279 277 277 277 276 274 273 272 271 271 271 271 271 271 272 271 271 271 271 269 268 266 265 268 269 271 273 270 267 266 266 265 265 264 264 263 263 263 260 260 263 265
285 285 286 286 286 287 287 287 287 287 287 287 287 287 287 287 287 287 286 286 286 286 286 285 285 285 284 284 283 282 280 279 278 277 277 277 276 275 273 272 271 271 270 270 271 271 271 271 271 271 272 271 269 267 268 267 267 270 273 273 269 266 265 266 264 263 263 263 262 260 260 262 266 272
286 286 286 286 286 287 287 287 287 288 287 287 287 288 287 287 287 287 286 286 285 285 286 285 285 284 283 283 282 281 280 279 278 277 277 276 276 275 274 273 272 271 270 269 269 270 270 271 271 271 270 269 270 271 270 269 269 270 271 272 273 270 266 265 264 263 262 263 262 261 259 259 257 259
285 285 286 286 287 287 287 287 287 287 287 288 287 287 287 287 287 287 287 286 285 285 285 285 284 283 283 282 281 281 279 278 278 277 277 276 275 275 274 273 272 271 270 269 269 269 270 271 272 271 270 270 271 271 269 267 265 267 267 269 273 273 271 270 266 265 264 265 263 260 259 257 259 259
285 285 286 286 286 287 287 287 287 287 287 288 288 287 287 287 287 286 286 285 285 285 284 284 283 282 282 281 281 280 279 278 277 277 276 276 275 274 274 273 272 271 270 269 269 270 271 271 271 270 270 270 270 269 267 266 265 265 265 265 267 272 273 272 272 271 268 265 262 258 257 260 260 262
285 285 285 286 286 286 287 287 287 287 287 287 287 287 287 287 287 286 286 285 284 284 283 283 283 282 281 280 280 279 279 278 277 276 276 275 275 274 273 273 272 272 271 271 270 269 269 270 270 269 270 270 269 269 267 266 266 265 264 265 265 264 266 273 274 273 273 272 271 265 260 259 259 260
283 283 283 284 284 285 286 286 287 287 287 287 287 287 287 286 286 286 285 285 284 283 283 282 282 281 280 279 279 278 278 278 277 276 275 275 275 274 273 273 273 272 271 269 268 268 269 269 269 270 268 267 267 268 266 265 264 265 265 264 262 264 266 267 270 273 274 274 273 273 273 272 271 272
278 278 279 280 280 281 283 284 285 286 286 286 286 286 286 286 285 285 285 284 284 283 282 282 281 280 279 278 278 277 277 277 277 276 276 275 274 274 273 273 272 270 269 268 268 267 268 268 269 269 268 267 267 267 267 266 265 264 263 263 263 265 266 267 268 269 269 269 272 274 274 275 274 274
Wind_Speed
14 14 15 14 13 12 11 12 11 11 10 11 10 10 12 10 12 14 13 15 6 4 10 7 5 10 9 10 9 9 10 13 13 9 10 11 11 15 20 22 23 23 23 21 20 21 21 20 21 24 25 24 22 22 21 18 17 18 22 22 20 20 19 19 18 16 17 16 16 16 15 16 16 16
12 14 13 13 13 12 12 13 12 11 12 12 12 11 11 10 13 13 14 19 7 6 4 8 5 4 9 9 8 8 10 14 14 9 10 10 12 18 20 21 21 20 19 21 22 23 22 23 24 23 24 25 24 23 20 16 17 20 22 21 21 20 19 18 17 16 16 18 17 16 17 16 17 19
12 14 15 14 14 13 14 14 12 12 11 12 11 12 11 12 13 14 14 17 10 8 10 7 6 6 8 8 8 8 8 11 13 11 10 11 16 19 15 18 18 18 19 20 21 22 24 24 25 25 25 23 23 21 18 18 22 23 22 22 22 20 19 17 16 17 17 17 17 17 17 19 19 19
12 15 16 16 14 13 12 13 12 12 12 11 12 12 12 13 12 12 14 16 21 5 7 5 7 9 8 8 9 10 8 10 14 11 11 14 16 11 10 15 19 19 19 19 20 20 20 21 23 25 23 24 26 23 21 22 23 24 22 21 20 18 17 16 17 16 16 17 17 17 18 19 19 19
14 15 16 15 15 13 14 12 11 12 12 12 12 11 11 12 11 12 13 17 19 11 4 4 5 5 6 5 8 9 8 8 8 9 9 9 9 9 9 9 15 17 17 18 19 19 18 17 18 19 19 19 21 21 23 21 21 22 20 18 20 18 17 16 16 17 18 18 18 17 18 19 19 19
13 14 14 15 13 12 14 14 13 12 12 12 12 11 11 12 12 11 13 15 14 19 4 5 3 3 7 8 5 10 10 11 10 11 11 9 9 9 9 8 9 16 17 17 17 17 18 17 17 16 16 16 15 17 21 19 18 18 17 16 16 18 18 19 19 20 19 20 20 19 19 18 19 20
13 14 14 14 12 11 13 14 13 12 13 12 13 13 11 12 12 12 14 13 16 17 15 8 8 7 7 10 10 10 9 7 6 8 9 9 7 6 7 8 7 11 14 13 15 16 15 16 16 17 17 17 16 16 16 17 17 16 16 16 15 14 14 16 18 18 18 18 18 18 18 18 17 16
13 14 14 14 12 12 13 13 12 12 12 12 12 13 11 11 12 11 11 14 14 13 14 5 8 5 6 6 4 3 4 5 4 6 5 3 6 7 7 7 7 8 11 12 14 14 15 17 16 17 17 18 17 16 15 14 14 13 12 13 13 14 14 14 16 15 16 17 15 15 15 16 17 16
13 13 14 15 13 13 14 14 13 11 12 12 11 12 11 11 10 9 9 11 11 13 14 10 7 8 9 7 6 8 9 8 6 4 6 6 6 6 6 6 6 5 9 11 12 13 15 15 16 17 17 16 16 15 13 12 10 9 9 9 10 9 7 6 8 7 9 10 10 12 12 13 15 17
12 13 14 14 13 13 14 14 12 12 13 11 12 13 12 11 10 11 11 10 11 12 15 14 14 5 8 4 5 5 6 6 8 5 5 2 4 6 7 7 5 4 4 5 6 8 11 14 16 15 15 14 14 14 13 11 9 9 8 8 8 7 8 8 8 8 9 10 11 12 14 16 16 16
13 13 14 14 13 14 14 14 14 12 12 12 13 13 12 12 12 13 12 11 12 13 14 14 12 10 5 5 9 4 4 3 2 6 4 5 6 6 7 7 4 4 5 5 7 7 8 9 9 11 12 13 13 12 12 11 11 9 10 9 9 9 9 9 9 9 10 11 13 15 15 15 16 16
12 13 14 14 14 14 15 14 13 12 12 9 10 9 9 10 11 12 10 10 11 12 12 13 12 9 7 2 2 4 2 2 4 3 6 10 9 9 7 8 7 4 4 5 4 4 5 6 7 8 9 11 11 11 10 11 10 11 11 10 10 10 10 10 10 11 12 14 15 16 15 16 15 15
13 13 14 14 14 14 17 19 18 17 17 14 13 11 9 11 11 12 12 13 13 13 13 13 9 8 6 6 7 5 5 9 12 9 9 9 9 4 4 5 3 4 5 5 4 5 6 6 6 5 5 6 8 8 9 7 10 10 10 11 11 11 11 11 12 12 14 15 16 15 15 15 14 13
13 14 13 13 17 18 18 19 20 19 17 17 16 15 12 14 13 13 12 11 10 9 11 12 12 12 12 10 10 10 9 9 3 3 7 9 8 2 4 3 5 6 6 6 7 7 5 6 5 5 7 4 5 5 5 5 5 7 10 10 10 10 11 12 12 14 15 14 15 14 14 13 12 11
13 12 12 12 14 15 17 17 20 18 18 19 21 23 21 16 12 10 10 11 10 11 12 12 11 12 13 10 9 10 9 7 9 10 7 10 5 7 8 10 1 6 10 9 7 6 5 6 7 5 5 4 4 4 4 5 7 8 8 9 9 9 10 10 12 13 13 13 13 12 12 10 8 8
11 11 11 11 10 10 11 11 12 15 19 21 21 22 22 23 25 23 18 14 11 10 11 13 13 12 14 12 8 9 7 9 7 8 6 7 9 8 8 7 9 4 11 8 7 5 3 5 5 5 4 3 3 3 4 7 8 9 9 9 9 9 9 9 10 11 11 11 10 9 9 8 7 7
8 6 7 9 9 10 14 12 11 9 10 15 21 22 22 21 20 19 22 21 16 12 13 15 15 14 12 12 10 10 12 9 10 7 8 8 9 10 9 11 9 3 8 5 4 5 2 4 4 4 1 2 2 2 5 8 9 9 9 9 9 9 9 10 10 10 9 8 9 8 8 6 6 7
12 13 14 13 12 10 9 10 12 12 13 12 10 12 12 13 17 21 24 24 22 18 14 15 17 14 9 15 12 12 10 9 11 10 12 10 9 11 14 5 2 4 9 10 7 3 2 3 4 3 2 2 2 2 4 7 8 9 10 9 10 10 9 10 9 9 9 9 7 7 5 5 5 5
12 12 11 11 12 9 7 9 10 10 11 10 11 12 12 12 12 12 13 12 13 15 16 17 18 15 11 13 11 8 10 13 14 15 15 14 12 3 5 6 3 4 7 5 6 6 4 3 4 3 2 3 4 2 3 10 12 13 12 12 11 11 11 11 10 9 8 7 4 3 2 1 1 1
12 12 11 10 11 12 13 14 14 13 11 10 13 13 14 13 12 12 13 13 15 15 16 15 16 15 13 13 10 9 10 10 7 3 4 6 6 7 6 6 4 4 5 5 6 5 4 4 5 3 2 4 6 4 5 9 12 13 13 13 13 12 11 10 9 8 8 7 6 5 3 2 2 2
10 10 10 10 11 11 11 10 9 11 12 11 14 15 14 13 11 14 9 10 17 19 19 20 20 20 17 15 15 13 15 12 9 6 5 6 8 8 8 7 6 8 8 7 3 5 7 5 4 6 3 4 5 5 4 1 12 13 14 13 13 12 11 11 10 9 8 7 6 5 5 3 4 4
9 10 13 12 12 12 11 11 12 13 10 10 12 11 11 12 13 13 7 5 12 13 15 16 17 16 15 14 14 13 14 15 13 11 13 10 10 11 11 10 7 3 5 7 6 6 6 6 7 9 4 5 4 4 4 5 5 10 12 15 14 13 12 11 10 9 8 8 6 6 5 5 6 4
8 9 7 11 10 10 12 17 16 15 11 10 12 11 10 14 16 15 5 9 9 7 8 10 10 11 13 12 10 10 16 18 16 13 13 7 11 12 10 7 6 2 5 8 10 9 7 11 7 10 7 3 2 1 3 4 5 6 6 6 7 12 11 10 10 9 8 8 7 6 5 5 6 2
8 7 8 7 11 14 17 17 16 15 15 12 11 10 11 14 18 7 3 9 8 10 11 10 9 10 5 4 4 4 6 10 11 13 10 10 12 11 10 10 12 10 8 10 14 9 6 8 10 4 2 9 7 3 2 3 4 4 4 6 6 7 9 9 7 8 8 7 7 6 5 5 5 3
10 8 7 7 8 13 15 15 16 16 16 16 13 12 12 12 11 8 6 9 10 9 8 8 7 5 3 4 4 5 6 8 9 9 7 7 11 11 10 10 10 7 1 7 18 10 9 12 10 5 2 4 7 9 2 3 2 2 2 4 6 5 6 6 4 5 5 6 6 6 6 5 5 4
8 8 8 7 8 12 14 14 15 17 17 18 13 13 16 18 18 13 10 7 5 6 6 6 6 5 4 5 5 6 7 7 8 10 10 8 7 7 5 11 13 10 7 8 22 10 10 10 13 11 5 6 4 8 9 3 2 2 2 2 5 6 7 6 5 4 3 2 2 3 4 5 4 5
9 8 8 8 11 14 14 15 16 16 18 16 13 17 18 18 19 16 9 6 6 6 6 6 7 7 6 6 7 8 8 7 7 7 6 5 6 5 1 2 1 4 5 12 14 9 9 8 10 13 9 7 12 6 7 8 5 4 3 4 5 5 5 6 6 5 4 3 1 5 5 4 3 3
9 9 9 10 14 15 16 17 18 17 17 13 17 18 18 17 15 10 7 5 5 5 6 8 7 7 7 6 6 7 5 4 4 3 3 2 2 4 5 4 3 3 10 14 15 10 9 10 11 7 11 14 12 12 10 2 6 8 8 4 4 4 5 6 6 5 4 3 3 3 4 3 2 3
9 11 16 17 17 16 17 18 18 16 16 18 18 18 17 16 8 7 5 6 6 8 10 9 8 8 7 7 6 3 5 7 7 7 7 7 7 6 7 8 8 5 2 9 11 10 10 12 13 10 10 9 11 6 9 10 11 9 9 9 5 4 5 5 6 5 5 4 3 2 2 1 0 1
18 18 18 19 17 15 13 11 9 8 9 13 16 15 13 8 7 6 6 6 7 9 8 7 7 6 3 4 3 6 9 9 7 6 5 5 4 5 5 6 6 6 5 3 2 6 9 11 13 13 11 9 8 11 9 11 9 9 9 7 7 6 3 5 5 5 5 3 2 2 1 1 1 0
10 12 12 10 12 12 15 15 15 14 13 10 9 7 6 6 6 6 7 8 9 9 7 6 6 4 2 4 7 6 8 8 5 6 9 7 8 7 6 7 5 4 4 5 5 4 3 7 10 13 13 9 7 9 9 9 12 11 8 7 9 8 6 5 4 5 4 3 2 1 0 1 0 0
10 10 11 11 8 8 7 7 6 6 6 6 6 6 5 6 5 7 8 7 5 5 4 4 2 3 5 7 7 6 7 7 6 7 10 9 8 8 10 7 6 6 5 5 6 6 6 5 4 3 7 10 10 6 5 6 10 11 10 7 5 5 7 6 5 3 3 3 2 1 1 1 1 2
11 9 9 8 7 6 7 6 6 6 5 5 6 6 5 5 5 4 4 7 7 6 5 6 6 5 5 5 5 5 6 6 9 5 6 6 11 7 8 11 7 9 9 7 6 6 6 7 9 9 8 7 7 10 12 7 3 8 11 9 7 7 5 5 5 5 3 4 3 1 1 2 4 4
12 10 9 9 8 8 7 7 6 6 5 5 5 5 5 5 5 5 6 6 6 5 6 5 5 6 6 6 6 6 7 5 6 5 3 5 4 7 6 6 6 4 7 8 6 7 7 8 8 10 11 10 9 7 4 4 9 7 8 8 8 8 5 5 4 4 4 3 4 3 1 1 2 3
9 10 10 10 8 8 8 8 7 6 6 6 6 5 5 5 6 6 5 6 5 5 6 6 7 6 8 8 8 8 8 9 8 6 5 5 7 8 9 9 6 7 7 5 6 5 7 7 8 9 8 8 7 6 9 3 7 8 8 8 7 8 6 5 5 4 4 3 3 4 1 1 1 1
13 9 10 11 9 8 9 9 7 7 6 6 6 6 5 6 6 7 7 7 7 7 7 7 6 7 7 7 7 7 7 6 8 8 8 9 9 7 7 8 9 8 8 9 7 7 7 8 10 12 9 6 6 6 2 4 2 8 11 9 7 7 6 6 5 4 5 5 4 4 3 3 0 2
11 10 9 11 10 9 10 9 8 8 7 7 7 6 7 7 6 7 9 8 7 7 7 6 7 6 6 6 5 5 5 6 7 6 7 7 6 6 7 6 7 6 5 4 6 8 9 9 9 12 13 10 9 7 4 2 1 3 6 10 7 7 7 6 6 6 5 4 3 4 3 2 1 1
10 10 10 10 10 10 9 9 8 8 7 7 7 7 7 7 6 7 6 6 7 7 7 7 7 6 6 6 7 7 7 7 7 8 8 8 8 8 8 8 6 5 5 5 5 6 6 8 9 9 12 13 11 10 9 3 3 5 6 9 10 8 7 7 7 7 5 3 4 3 2 2 1 1
9 10 10 10 10 9 10 9 9 9 8 8 7 8 8 7 7 7 6 7 7 8 7 7 7 7 8 8 7 8 8 9 9 9 10 10 9 9 8 10 7 8 8 6 7 6 6 7 8 9 8 10 13 13 13 13 9 6 9 13 9 9 7 7 7 6 6 6 3 0 0 1 2 3
10 9 10 9 10 9 9 9 9 9 9 8 8 8 8 8 8 8 7 7 8 8 8 8 8 7 7 7 7 7 7 10 10 10 10 10 9 9 9 10 11 10 6 7 7 7 7 7 6 4 3 6 7 9 8 7 6 5 6 9 15 11 9 8 7 7 6 5 4 6 2 1 2 2
9 10 9 9 10 9 9 9 9 9 9 9 9 8 9 8 9 8 8 8 7 8 8 8 8 8 8 8 9 9 10 9 9 9 9 9 10 10 11 11 10 11 11 6 7 6 8 5 6 10 10 9 11 12 11 9 9 7 6 6 11 12 12 10 7 7 5 4 5 6 6 4 2 1
9 10 10 9 10 10 10 10 9 9 9 9 9 9 9 9 9 10 10 9 9 9 8 8 8 8 8 8 8 9 10 10 10 10 10 10 10 10 12 11 11 11 12 9 10 8 6 8 9 8 8 9 10 10 9 11 11 9 6 4 3 8 12 12 11 8 5 7 7 6 3 1 1 1
9 9 9 9 9 10 10 10 10 9 9 9 9 9 9 9 8 8 8 8 8 8 8 8 7 8 7 7 8 9 9 9 10 10 11 11 11 12 13 12 11 11 11 9 8 7 8 8 8 8 6 6 4 5 9 9 9 9 7 7 5 2 1 9 13 12 11 11 8 5 5 5 5 3
9 10 10 11 11 11 10 10 10 10 10 10 9 9 9 9 9 9 8 8 8 8 8 8 7 8 8 8 8 8 8 8 9 10 11 11 11 11 11 11 11 10 10 10 11 7 8 8 8 8 8 5 4 7 9 10 8 8 8 7 3 5 6 3 3 7 8 8 9 7 8 8 5 5
10 10 11 10 10 11 11 11 11 11 10 10 10 9 9 9 9 9 8 8 8 8 8 8 7 7 7 8 8 9 8 8 8 8 9 9 10 10 11 12 11 11 12 13 14 11 9 9 8 6 5 4 4 6 8 9 10 9 7 7 7 6 5 5 5 7 6 4 7 8 6 7 7 8
Wind_Direction
234 238 236 238 242 238 238 240 238 239 239 239 240 231 237 239 256 275 271 263 244 239 197 238 241 202 212 221 216 220 223 228 223 215 216 221 227 228 225 227 230 232 234 234 232 233 232 232 233 233 236 239 241 241 240 237 240 241 243 243 243 241 242 244 245 248 248 248 251 255 256 257 258 260
235 238 237 236 241 236 236 237 234 233 234 236 235 236 235 228 242 256 266 274 209 251 206 217 237 202 219 216 218 216 223 227 220 219 216 220 226 228 224 224 225 229 231 232 231 231 229 228 231 233 233 235 234 235 236 232 231 234 235 236 241 242 241 241 240 239 241 243 247 248 251 252 250 247
234 238 238 235 239 233 236 237 235 233 230 233 234 238 230 233 233 246 258 272 266 174 249 228 234 212 217 211 216 219 224 227 217 217 219 222 227 228 230 228 227 225 224 225 227 230 229 230 232 235 238 237 237 234 228 228 236 233 232 235 237 236 235 235 236 237 240 243 247 249 249 252 260 268
234 236 238 236 237 236 237 237 234 235 231 230 233 232 234 235 230 237 248 254 264 183 228 208 217 214 213 205 209 221 224 227 216 216 216 224 224 227 229 224 223 225 223 223 226 229 230 232 235 237 238 237 237 235 233 234 233 234 230 231 234 234 234 235 237 238 240 242 244 248 255 259 261 266
237 237 240 240 238 237 239 239 236 235 234 232 232 231 233 236 229 229 238 250 264 257 190 201 208 215 207 229 210 225 221 229 226 226 232 227 220 220 221 223 224 224 223 223 224 226 228 230 237 239 239 236 238 232 231 232 233 234 231 228 232 234 236 237 238 240 243 247 251 252 255 259 265 268
236 240 242 244 241 237 240 243 238 236 235 233 235 232 226 232 231 217 231 246 253 267 220 256 195 226 190 229 194 213 216 225 212 210 215 216 213 216 216 220 224 219 221 222 224 224 225 225 229 235 238 238 233 231 232 226 224 227 231 233 233 236 238 239 242 246 249 250 252 256 260 263 266 268
237 240 240 243 240 237 240 241 239 237 237 235 236 237 227 232 229 220 221 234 248 255 258 220 230 205 201 204 212 212 223 236 211 222 224 219 219 221 213 220 229 218 215 215 219 223 222 227 224 226 231 233 236 236 232 226 223 224 225 225 222 222 232 243 248 250 252 257 259 262 267 270 269 267
238 239 243 243 238 239 241 242 238 237 235 236 236 238 234 233 233 225 223 228 241 254 264 220 220 211 213 242 253 202 214 221 237 243 264 228 216 216 217 220 226 217 210 210 214 215 218 224 224 225 227 229 231 233 233 231 229 228 226 227 220 218 222 229 242 249 252 253 259 263 264 264 268 270
237 239 239 243 236 236 239 241 238 239 234 235 234 237 233 232 234 233 231 235 237 247 252 253 218 202 210 210 201 192 198 215 210 200 215 223 229 228 221 223 230 223 215 220 218 217 220 222 224 225 225 226 225 226 228 230 227 221 217 216 217 214 205 205 220 230 243 254 260 262 262 264 264 265
239 241 243 243 239 238 239 243 240 238 238 235 233 231 227 225 226 231 231 229 234 240 250 254 259 195 213 231 236 216 232 202 209 229 235 229 236 228 237 232 219 205 202 205 216 220 225 227 225 223 223 222 222 223 224 223 216 204 194 189 195 197 203 212 218 230 243 249 251 254 260 263 265 265
241 242 243 244 239 239 241 244 243 237 234 227 229 229 229 227 225 232 232 234 241 245 252 255 253 254 240 226 226 211 179 234 254 234 214 256 232 227 221 239 217 198 207 213 205 208 208 212 217 220 220 220 220 223 223 218 209 200 196 188 184 188 203 210 219 231 239 246 252 256 257 258 259 261
243 242 243 243 240 237 237 236 240 236 243 238 246 240 237 238 234 239 239 243 245 248 252 252 250 237 214 245 357 32 93 186 273 223 208 230 230 222 214 223 207 203 195 206 207 202 194 204 213 217 222 222 219 214 211 209 205 201 200 199 192 199 205 212 220 231 242 249 251 253 256 256 257 257
244 243 242 242 241 237 240 238 238 234 227 227 237 239 232 240 234 239 235 236 234 239 244 252 252 252 221 207 187 188 190 202 216 204 194 237 251 217 196 236 204 187 189 205 184 213 192 193 201 195 208 219 216 212 199 198 198 192 192 191 195 204 209 217 231 239 243 247 250 251 250 250 251 254
245 245 246 245 242 240 238 236 235 236 234 231 233 243 227 229 232 235 237 233 230 234 242 243 237 236 238 212 198 204 207 217 215 115 183 221 231 130 238 274 217 183 177 178 211 217 191 188 197 185 203 193 182 190 181 174 166 175 185 189 198 207 217 228 235 239 242 242 243 243 243 245 248 253
247 245 245 248 244 237 237 238 238 239 237 235 237 244 247 244 237 240 237 239 230 232 239 246 240 241 245 230 200 207 207 200 206 214 195 216 194 205 208 235 284 197 173 196 206 215 184 175 196 197 200 181 181 182 190 170 175 183 192 201 207 212 219 227 231 233 233 231 231 234 238 241 243 249
250 249 248 244 240 238 238 241 241 238 240 245 250 248 243 240 234 226 223 228 229 226 236 243 237 234 235 236 191 201 196 213 205 218 205 205 207 210 216 228 229 197 174 178 192 206 110 182 187 189 196 171 183 183 184 197 197 196 198 205 208 212 212 206 207 212 213 215 219 221 223 228 237 246
261 264 266 268 257 253 243 239 245 246 242 235 237 242 245 247 250 254 251 242 235 224 229 240 243 228 228 234 220 193 203 191 205 199 208 209 209 212 216 226 214 171 179 138 169 189 159 164 176 174 87 119 116 163 193 202 200 190 187 183 186 187 185 187 184 184 185 192 201 211 220 228 240 256
275 268 262 262 261 251 243 239 238 242 246 250 245 246 246 246 244 240 239 241 243 245 242 241 242 239 200 228 220 205 186 169 203 198 218 208 208 208 220 229 124 123 172 177 151 119 150 162 145 137 39 48 83 163 206 187 174 164 155 152 148 150 162 173 169 169 184 191 197 210 219 236 251 268
271 270 266 258 257 259 249 249 244 238 242 249 255 254 249 245 245 241 240 237 235 234 235 241 244 246 225 231 227 193 188 198 207 203 211 202 201 168 63 61 72 140 191 171 155 183 125 141 116 63 53 92 76 20 162 137 128 127 129 134 141 149 153 155 158 168 173 186 168 163 120 83 196 248
275 276 277 281 279 275 268 249 229 228 239 245 248 249 252 255 254 253 248 242 239 235 236 237 240 241 229 221 217 203 191 203 203 124 69 95 125 157 173 179 166 185 205 212 168 116 141 176 116 118 24 89 79 49 55 119 131 133 134 137 144 145 148 152 155 152 146 145 146 112 140 135 126 98
278 280 282 280 280 279 276 275 271 262 254 255 254 253 255 256 254 255 246 231 242 244 245 248 247 246 241 230 227 214 196 194 173 140 137 182 161 164 190 201 173 203 170 208 184 112 118 173 132 122 50 66 78 44 21 63 134 134 134 137 140 141 141 140 139 141 140 136 130 135 136 126 123 99
274 273 276 277 282 284 285 298 289 263 234 242 253 258 259 262 259 258 242 245 253 250 251 251 253 254 252 243 236 225 202 189 162 168 201 193 164 195 199 196 189 123 173 189 154 118 143 128 134 112 118 79 26 9 13 33 78 116 131 133 133 134 134 134 135 127 127 129 129 128 124 123 104 79
275 281 275 269 268 271 280 281 279 276 260 250 252 250 255 260 261 258 218 236 252 255 248 251 244 247 240 236 226 215 201 188 185 194 207 159 179 195 200 167 121 91 251 197 177 146 155 150 182 144 121 60 338 29 358 52 65 64 58 85 112 129 129 128 121 122 130 129 122 118 121 123 114 92
284 275 275 266 261 265 267 267 267 266 261 255 260 256 251 255 260 272 228 238 232 242 238 244 237 242 244 233 231 216 204 200 195 202 198 183 188 196 191 182 181 192 190 171 180 164 149 159 165 203 151 140 167 181 60 78 57 57 76 99 82 98 94 96 108 122 131 122 120 119 113 113 126 118
290 291 279 277 260 260 262 263 266 266 262 256 253 253 252 254 270 281 254 254 232 239 246 247 248 245 218 213 207 203 195 198 203 209 208 197 197 193 188 187 202 225 156 185 170 149 160 171 162 137 69 70 128 131 168 94 39 60 67 112 119 107 104 92 77 49 75 103 118 120 110 109 120 144
287 287 293 293 284 278 274 273 269 267 264 261 257 255 255 260 262 261 254 249 233 232 245 243 239 228 210 214 212 210 208 204 199 202 200 195 208 227 219 192 186 202 198 174 172 163 133 170 174 152 133 127 117 133 134 140 123 92 94 114 129 143 129 124 109 106 93 58 26 113 112 109 116 136
291 295 294 296 297 293 292 290 285 281 277 275 267 266 263 259 258 256 254 241 227 227 230 230 234 223 211 209 213 208 215 206 196 198 196 186 176 154 63 359 283 194 127 153 171 162 162 154 167 164 152 132 136 138 139 142 170 143 124 145 144 148 143 129 130 133 127 95 60 85 68 86 110 129
286 294 292 289 289 291 292 289 287 283 278 273 273 272 270 267 263 257 255 240 233 236 236 230 231 229 220 212 212 217 203 186 176 146 110 87 100 109 78 45 40 118 149 163 170 167 158 152 162 155 143 144 147 162 158 47 118 153 145 159 146 148 143 135 135 132 128 117 75 46 65 30 339 7
282 280 285 290 292 291 290 288 287 283 276 273 272 270 267 266 263 257 238 234 213 227 231 227 224 227 219 211 212 157 125 106 89 104 77 79 72 63 76 65 49 17 98 161 163 162 162 160 158 143 143 152 146 161 161 165 154 159 160 147 149 162 143 142 139 132 132 118 129 118 143 163 315 208
283 284 284 284 285 286 285 287 286 282 276 269 270 272 271 263 252 231 225 223 226 232 238 239 239 237 213 196 154 125 121 133 162 139 123 116 109 125 122 98 60 49 17 357 113 144 152 155 153 151 146 145 146 149 157 143 153 152 159 154 128 99 132 145 133 127 131 143 156 153 213 206 226 153
282 280 278 278 277 277 279 279 278 279 281 280 274 268 259 252 244 235 220 219 221 231 234 238 242 231 163 107 122 162 169 172 164 168 159 151 159 148 145 116 116 98 50 25 16 9 111 138 147 149 144 136 128 149 159 153 144 150 153 152 156 153 163 137 133 134 144 154 165 168 286 242 254 218
289 288 286 281 274 273 274 272 268 264 266 266 273 268 264 257 251 248 245 247 241 235 221 218 176 138 157 171 180 172 187 191 173 173 162 168 157 160 131 126 148 134 112 83 57 37 48 70 90 88 123 140 138 124 110 148 153 148 140 144 117 101 125 143 139 159 155 132 118 188 278 336 323 310
292 285 284 277 278 268 272 274 266 263 256 256 253 261 262 258 251 243 224 233 235 231 213 213 193 188 167 185 170 178 190 190 187 183 156 103 135 160 170 132 137 150 144 129 104 69 51 62 63 75 70 57 92 127 133 122 151 147 145 144 136 126 133 139 145 159 133 123 170 187 255 287 278 279
294 289 285 279 278 279 274 275 271 264 252 255 253 241 243 246 246 237 235 236 241 221 218 217 196 186 178 182 182 181 189 175 179 180 165 158 148 148 164 136 139 123 128 129 116 126 106 96 91 76 74 72 62 51 19 147 146 155 138 138 133 135 141 139 148 148 152 154 157 179 230 296 287 281
286 292 286 283 277 274 272 270 271 265 261 254 252 248 233 229 232 238 238 240 239 234 220 213 206 196 191 190 185 189 186 184 175 163 166 153 167 168 146 143 142 151 143 106 125 139 125 129 115 96 85 88 74 28 41 14 146 138 130 123 130 135 144 148 144 148 161 173 125 152 199 291 305 288
288 284 284 285 281 280 277 274 271 264 261 259 250 252 242 236 221 227 233 230 225 227 223 219 213 204 203 203 196 195 184 174 177 174 171 174 172 162 158 163 148 147 148 146 137 141 134 130 131 127 122 124 105 97 32 17 306 167 147 143 142 138 138 138 134 140 145 164 150 142 164 174 219 301
286 285 278 279 283 281 278 279 275 270 259 257 255 241 245 247 232 223 230 227 230 227 227 222 221 211 206 200 187 186 172 170 170 172 179 179 167 153 148 144 150 137 125 117 133 142 145 145 149 142 136 137 147 143 123 105 174 252 153 134 133 143 141 138 135 137 156 146 169 157 179 179 200 280
278 283 281 278 277 279 275 276 276 271 264 256 253 251 243 245 242 237 221 218 225 226 224 223 220 209 204 192 185 182 176 175 166 175 180 178 174 171 169 155 142 135 126 126 142 151 152 151 154 159 152 154 148 139 146 156 157 194 175 141 142 145 139 138 148 157 170 165 154 191 118 123 170 276
276 280 279 280 281 279 279 277 273 270 266 259 254 250 250 246 242 238 223 222 222 223 224 220 217 209 203 196 190 183 178 174 176 181 180 185 181 172 161 161 137 151 136 134 152 158 162 169 170 170 169 160 164 171 161 155 175 157 155 147 135 133 153 154 156 155 155 164 183 78 229 246 258 306
279 277 277 279 278 276 273 274 270 266 265 259 254 251 248 249 240 238 230 224 221 221 220 220 213 206 200 191 186 182 183 186 185 180 181 178 176 169 166 164 164 156 139 141 141 161 173 176 172 178 100 77 75 92 90 89 83 99 132 148 152 155 157 145 158 156 162 167 124 128 148 2 30 327
283 283 283 283 284 282 277 273 271 270 266 264 260 256 250 248 246 239 234 226 219 219 219 216 208 204 200 189 188 182 188 186 183 178 174 173 170 169 163 158 162 166 155 140 142 142 164 159 101 98 103 105 110 103 102 115 129 141 141 151 162 154 156 158 154 155 153 150 133 140 136 133 131 346
283 284 286 286 285 287 283 281 278 273 270 266 264 261 257 250 247 242 237 232 223 221 218 214 207 202 200 191 188 186 189 185 180 177 172 168 165 160 162 164 165 167 170 162 160 148 124 108 115 115 125 130 135 133 148 151 147 140 130 118 105 161 163 159 161 162 144 136 136 135 109 53 13 75
290 286 288 288 286 284 285 285 282 280 277 273 268 263 261 257 253 244 237 231 222 218 217 214 205 199 197 188 189 188 188 183 179 175 170 168 165 164 168 172 168 165 163 149 130 116 121 127 128 135 144 141 132 130 146 149 142 133 135 142 141 81 146 168 164 164 167 172 171 169 170 162 141 173
321 319 316 316 312 306 299 294 288 284 281 278 273 268 262 261 256 245 236 231 223 218 216 212 203 195 192 185 182 185 188 183 174 172 171 171 168 164 160 155 152 149 144 132 121 125 130 134 140 142 144 149 136 135 138 136 142 147 144 138 117 142 174 193 211 181 161 162 171 179 182 172 183 162
316 312 308 304 300 297 295 294 293 290 287 282 278 271 266 259 255 252 240 234 227 222 214 209 201 194 184 177 175 185 186 172 167 167 162 159 159 156 154 151 147 141 141 145 136 127 139 137 135 125 110 105 104 128 138 144 143 142 143 149 157 169 176 178 166 138 140 154 175 172 162 170 149 153